When you browse on this site, cookies collect data to enhance your experience and personalize the content and advertising you see.
Visit our Privacy Policy to learn more. By continuing to use the site, you agree to this use of cookies and data.
  • In Hungary
  • List of Countries
  • For 7 days
  • Water Temperature
  • Satellite Maps
  • Weather Map
  • News
  • Weather Widgets
  • user-avatar
    Login

    Hourly Weather Rio Negro

    Today, 17 November, Saturday

    Time Temperature Precipitation Wind Pressure Humidity
    00:00 +17°C° 0 mm 2 mps 696 mmHg 92%
    01:00 +16°C° 0 mm 2 mps 696 mmHg 91%
    02:00 +16°C° 0 mm 2 mps 696 mmHg 90%
    03:00 +16°C° 0 mm 2 mps 696 mmHg 89%
    04:00 +16°C° 0 mm 1 mps 696 mmHg 90%
    05:00 +16°C° 0 mm 1 mps 696 mmHg 91%
    06:00 +15°C° 0 mm 1 mps 696 mmHg 92%
    07:00 +18°C° 0 mm 1 mps 696 mmHg 80%
    08:00 +19°C° 0 mm 2 mps 696 mmHg 69%
    09:00 +23°C° 0 mm 2 mps 697 mmHg 57%
    10:00 +25°C° 0 mm 2 mps 697 mmHg 50%
    11:00 +27°C° 0 mm 2 mps 697 mmHg 44%
    12:00 +29°C° 0 mm 2 mps 696 mmHg 37%
    13:00 +29°C° 0 mm 2 mps 696 mmHg 38%
    14:00 +30°C° 0 mm 2 mps 695 mmHg 39%
    15:00 +30°C° 0 mm 2 mps 695 mmHg 39%
    16:00 +29°C° 0 mm 2 mps 694 mmHg 48%
    17:00 +27°C° 0 mm 2 mps 694 mmHg 56%
    18:00 +25°C° 0 mm 2 mps 693 mmHg 65%
    19:00 +24°C° 0 mm 2 mps 693 mmHg 71%
    20:00 +21°C° 0 mm 2 mps 694 mmHg 78%
    21:00 +20°C° 0 mm 2 mps 694 mmHg 85%
    22:00 +19°C° 0 mm 2 mps 693 mmHg 87%
    23:00 +20°C° 0 mm 1 mps 693 mmHg 90%

    Tomorrow, 18 November, Sunday

    Time Temperature Precipitation Wind Pressure Humidity
    00:00 +19°C° 0 mm 1 mps 693 mmHg 93%
    01:00 +19°C° 0 mm 1 mps 692 mmHg 93%
    02:00 +19°C° 0 mm 1 mps 692 mmHg 93%
    03:00 +18°C° 0 mm 2 mps 691 mmHg 93%
    04:00 +19°C° 0 mm 2 mps 691 mmHg 91%
    05:00 +19°C° 0 mm 2 mps 691 mmHg 90%
    06:00 +20°C° 0 mm 2 mps 691 mmHg 89%
    07:00 +21°C° 0.1 mm 2 mps 691 mmHg 85%
    08:00 +24°C° 0.1 mm 2 mps 692 mmHg 80%
    09:00 +25°C° 0.1 mm 3 mps 692 mmHg 76%
    10:00 +25°C° 0.5 mm 3 mps 692 mmHg 76%
    11:00 +26°C° 0.5 mm 3 mps 692 mmHg 77%
    12:00 +26°C° 0.5 mm 3 mps 692 mmHg 78%
    13:00 +25°C° 2.3 mm 2 mps 691 mmHg 83%
    14:00 +24°C° 2.3 mm 2 mps 691 mmHg 88%
    15:00 +23°C° 2.3 mm 2 mps 691 mmHg 93%
    16:00 +23°C° 0.9 mm 2 mps 691 mmHg 94%
    17:00 +23°C° 0.9 mm 1 mps 691 mmHg 95%
    18:00 +22°C° 0.9 mm 1 mps 691 mmHg 95%
    19:00 +22°C° 0 mm 1 mps 691 mmHg 96%
    20:00 +21°C° 0 mm 1 mps 692 mmHg 97%
    21:00 +21°C° 0 mm 1 mps 692 mmHg 97%
    22:00 +21°C° 0 mm 1 mps 692 mmHg 97%
    23:00 +21°C° 0 mm 1 mps 693 mmHg 97%

    Day after tomorrow, 19 November, Monday

    Time Temperature Precipitation Wind Pressure Humidity
    00:00 +19°C° 0 mm 2 mps 693 mmHg 97%
    01:00 +19°C° 0.1 mm 2 mps 692 mmHg 97%
    02:00 +18°C° 0.1 mm 2 mps 692 mmHg 96%
    03:00 +18°C° 0.1 mm 2 mps 692 mmHg 95%
    04:00 +17°C° 0 mm 2 mps 692 mmHg 95%
    05:00 +17°C° 0 mm 2 mps 693 mmHg 94%
    06:00 +16°C° 0 mm 2 mps 693 mmHg 94%
    07:00 +17°C° 0 mm 2 mps 694 mmHg 88%
    08:00 +18°C° 0 mm 2 mps 694 mmHg 83%
    09:00 +18°C° 0 mm 2 mps 695 mmHg 77%
    10:00 +20°C° 0 mm 2 mps 695 mmHg 70%
    11:00 +23°C° 0 mm 2 mps 695 mmHg 63%
    12:00 +25°C° 0 mm 2 mps 695 mmHg 56%
    13:00 +25°C° 0 mm 2 mps 694 mmHg 57%
    14:00 +25°C° 0 mm 2 mps 694 mmHg 59%
    15:00 +25°C° 0 mm 2 mps 693 mmHg 60%
    16:00 +23°C° 0 mm 2 mps 693 mmHg 66%
    17:00 +20°C° 0 mm 3 mps 693 mmHg 71%
    18:00 +19°C° 0 mm 3 mps 693 mmHg 77%
    19:00 +18°C° 0 mm 3 mps 693 mmHg 80%
    20:00 +17°C° 0 mm 2 mps 694 mmHg 83%
    21:00 +16°C° 0 mm 2 mps 695 mmHg 86%
    22:00 +16°C° 0 mm 2 mps 695 mmHg 86%
    23:00 +16°C° 0 mm 2 mps 695 mmHg 86%

    20 November, Tuesday

    Time Temperature Precipitation Wind Pressure Humidity
    00:00 +16°C° 0 mm 1 mps 695 mmHg 87%
    01:00 +15°C° 0 mm 1 mps 695 mmHg 88%
    02:00 +15°C° 0 mm 1 mps 694 mmHg 89%
    03:00 +15°C° 0 mm 1 mps 694 mmHg 90%
    04:00 +15°C° 0 mm 1 mps 694 mmHg 91%
    05:00 +14°C° 0 mm 1 mps 694 mmHg 93%
    06:00 +14°C° 0 mm 1 mps 694 mmHg 94%
    07:00 +16°C° 0 mm 1 mps 695 mmHg 87%
    08:00 +18°C° 0 mm 1 mps 695 mmHg 79%
    09:00 +19°C° 0 mm 2 mps 696 mmHg 72%
    10:00 +20°C° 0 mm 2 mps 696 mmHg 67%
    11:00 +23°C° 0 mm 2 mps 696 mmHg 63%
    12:00 +24°C° 0 mm 2 mps 696 mmHg 58%
    13:00 +24°C° 0 mm 2 mps 696 mmHg 57%
    14:00 +25°C° 0 mm 2 mps 695 mmHg 56%
    15:00 +25°C° 0 mm 2 mps 695 mmHg 55%
    16:00 +24°C° 0 mm 2 mps 694 mmHg 61%
    17:00 +21°C° 0 mm 2 mps 694 mmHg 67%
    18:00 +20°C° 0 mm 2 mps 694 mmHg 73%
    19:00 +18°C° 0 mm 2 mps 695 mmHg 79%
    20:00 +16°C° 0 mm 2 mps 695 mmHg 85%
    21:00 +15°C° 0 mm 2 mps 695 mmHg 92%
    22:00 +14°C° 0 mm 2 mps 695 mmHg 93%
    23:00 +14°C° 0 mm 1 mps 696 mmHg 94%

    21 November, Wednesday

    Time Temperature Precipitation Wind Pressure Humidity
    00:00 +13°C° 0 mm 1 mps 696 mmHg 95%
    01:00 +13°C° 0 mm 1 mps 695 mmHg 96%
    02:00 +13°C° 0 mm 1 mps 695 mmHg 97%
    03:00 +12°C° 0 mm 1 mps 694 mmHg 97%
    04:00 +13°C° 0 mm 1 mps 695 mmHg 97%
    05:00 +13°C° 0 mm 1 mps 695 mmHg 96%
    06:00 +13°C° 0 mm 1 mps 695 mmHg 95%
    07:00 +15°C° 0 mm 1 mps 696 mmHg 88%
    08:00 +18°C° 0 mm 1 mps 696 mmHg 81%
    09:00 +20°C° 0 mm 1 mps 696 mmHg 74%
    10:00 +21°C° 0 mm 1 mps 696 mmHg 69%
    11:00 +23°C° 0 mm 1 mps 696 mmHg 65%
    12:00 +25°C° 0 mm 2 mps 696 mmHg 60%
    13:00 +25°C° 0 mm 2 mps 695 mmHg 61%
    14:00 +25°C° 0 mm 2 mps 695 mmHg 62%
    15:00 +25°C° 0 mm 2 mps 694 mmHg 63%
    16:00 +24°C° 0 mm 2 mps 694 mmHg 67%
    17:00 +23°C° 0 mm 2 mps 694 mmHg 71%
    18:00 +21°C° 0 mm 2 mps 694 mmHg 75%
    19:00 +20°C° 0 mm 2 mps 694 mmHg 81%
    20:00 +18°C° 0 mm 2 mps 694 mmHg 88%
    21:00 +18°C° 0 mm 1 mps 694 mmHg 94%
    22:00 +16°C° 0 mm 1 mps 694 mmHg 95%
    23:00 +16°C° 0 mm 1 mps 694 mmHg 97%

    22 November, Thursday

    Time Temperature Precipitation Wind Pressure Humidity
    00:00 +16°C° 0 mm 1 mps 694 mmHg 98%
    01:00 +16°C° 0 mm 1 mps 693 mmHg 98%
    02:00 +16°C° 0 mm 1 mps 693 mmHg 98%
    03:00 +16°C° 0 mm 1 mps 693 mmHg 98%
    04:00 +15°C° 0 mm 0 mps 693 mmHg 98%
    05:00 +15°C° 0 mm 0 mps 693 mmHg 97%
    06:00 +15°C° 0 mm 0 mps 693 mmHg 97%
    07:00 +17°C° 0.1 mm 0 mps 693 mmHg 90%
    08:00 +21°C° 0.1 mm 1 mps 694 mmHg 83%
    09:00 +23°C° 0.1 mm 1 mps 694 mmHg 75%
    10:00 +24°C° 0.1 mm 1 mps 694 mmHg 71%
    11:00 +25°C° 0.1 mm 1 mps 694 mmHg 67%
    12:00 +27°C° 0.1 mm 1 mps 694 mmHg 63%
    13:00 +27°C° 0.5 mm 1 mps 693 mmHg 64%
    14:00 +27°C° 0.5 mm 1 mps 693 mmHg 65%
    15:00 +28°C° 0.5 mm 1 mps 692 mmHg 66%
    16:00 +27°C° 0.5 mm 1 mps 692 mmHg 72%
    17:00 +25°C° 0.5 mm 1 mps 692 mmHg 77%
    18:00 +24°C° 0.5 mm 1 mps 691 mmHg 83%
    19:00 +23°C° 0 mm 1 mps 692 mmHg 88%
    20:00 +22°C° 0 mm 1 mps 692 mmHg 93%
    21:00 +20°C° 0 mm 1 mps 692 mmHg 98%
    22:00 +20°C° 0 mm 1 mps 692 mmHg 98%
    23:00 +20°C° 0 mm 1 mps 692 mmHg 98%
    Show more